Wind_Speed
9 10 10 12 13 12 13 14 16 21 21 20 19 20 19 19 19 21 21 21 21 22 20 19 21 22 22 22 21 18 14 12 11 9 8 9 11 11 10 10 10 9 6
10 11 11 11 13 12 12 11 13 13 16 19 19 21 22 22 23 22 23 22 22 20 21 17 19 18 19 20 22 18 15 16 14 13 11 10 11 12 11 11 10 8 7
12 13 12 12 14 13 12 12 12 15 20 21 22 24 22 22 18 19 21 23 22 20 19 18 16 13 16 20 22 19 18 19 17 17 15 13 12 12 12 11 12 11 12
16 15 12 12 14 13 12 11 11 13 16 18 21 24 26 23 19 18 21 21 22 20 20 19 19 19 19 21 22 22 21 27 21 20 18 16 15 14 13 12 12 11 11
18 16 13 11 13 12 11 12 11 12 14 15 18 22 24 22 22 23 21 22 22 22 21 23 20 21 17 22 24 24 21 22 25 21 21 20 17 17 16 13 13 13 13
20 8 12 12 12 10 11 11 12 13 12 14 16 19 21 22 23 23 23 22 22 20 21 22 20 19 17 18 22 21 25 19 19 19 21 22 19 18 17 16 15 14 14
13 6 4 11 8 6 7 8 10 12 13 15 16 17 19 21 23 22 18 18 22 21 23 25 19 21 18 18 21 20 15 17 23 17 21 22 21 20 19 17 16 15 15
14 9 11 10 8 8 9 9 10 12 11 15 17 20 16 19 18 20 17 18 21 22 24 24 23 24 21 21 18 19 19 21 21 19 20 22 21 21 21 18 17 16 16
16 11 9 9 10 10 11 13 14 12 15 20 25 23 19 22 21 14 17 20 16 18 23 26 25 25 21 21 20 21 21 22 26 22 20 20 21 22 22 21 19 18 18
22 14 12 12 12 11 11 15 16 20 22 23 22 20 22 19 23 13 12 16 14 16 19 21 22 24 24 27 24 22 21 22 24 26 22 20 21 22 23 22 21 21 20
20 16 12 14 14 12 13 15 17 18 21 21 23 25 24 14 13 12 14 16 20 16 17 16 19 23 24 24 29 25 26 24 25 25 22 22 21 21 23 23 23 22 22
16 15 19 19 15 14 11 13 18 20 20 20 22 25 22 13 13 13 16 14 14 15 17 16 14 19 23 27 27 32 25 26 23 23 26 22 23 24 25 24 24 24 24
18 15 23 23 21 20 20 19 19 17 18 19 19 21 20 15 15 19 15 15 15 15 13 13 10 9 8 14 23 29 29 27 24 23 25 27 26 25 27 28 29 28 27
6 10 11 15 19 23 20 20 20 17 17 18 19 18 16 19 20 17 17 15 14 10 12 11 14 13 7 6 8 9 13 24 26 24 25 25 27 29 29 30 28 30 30
11 13 13 14 14 14 15 16 15 15 15 16 19 19 19 19 22 18 22 22 19 15 15 14 13 13 11 11 11 12 12 12 9 12 15 16 21 22 24 29 28 28 28
10 9 9 10 11 12 13 15 17 18 17 16 15 16 18 18 18 18 15 14 17 16 18 19 19 16 15 15 15 16 17 16 15 15 19 17 18 18 22 26 30 32 30
7 8 11 12 12 14 15 15 16 16 15 14 13 13 15 12 12 14 15 17 18 20 20 23 24 25 20 20 20 19 21 21 21 22 22 22 22 22 20 23 27 32 34
10 11 12 14 15 16 17 17 18 18 16 15 14 16 18 21 23 20 14 16 21 25 28 29 30 29 31 28 30 27 26 30 32 37 32 29 29 27 27 24 24 29 31
11 12 13 15 16 16 18 18 19 20 20 20 18 19 20 21 23 22 21 18 19 24 25 35 33 37 39 44 43 44 43 40 43 30 32 37 33 30 29 30 27 28 33
15 17 19 19 19 20 21 22 23 23 23 24 24 23 22 23 23 24 25 24 24 22 26 24 30 30 35 37 41 44 44 41 40 36 34 33 35 34 29 30 31 30 32
20 21 23 23 23 24 24 24 24 24 23 24 24 24 23 23 23 23 25 26 28 30 33 34 33 33 34 34 27 37 43 41 39 39 39 37 36 37 36 32 32 32 32
22 23 23 22 22 23 23 24 24 25 25 25 25 26 26 25 26 26 25 26 28 30 32 34 35 37 36 36 38 40 44 45 45 43 45 40 37 37 37 36 35 34 32
24 23 21 21 21 21 22 22 23 25 25 25 25 26 27 29 28 29 29 29 30 31 32 34 35 36 37 37 38 39 43 46 45 40 41 40 38 37 35 35 36 36 34
24 22 20 20 21 21 21 22 24 24 24 25 25 26 27 29 29 30 30 30 30 33 35 35 36 35 37 37 40 39 39 40 41 40 40 41 37 37 36 36 37 37 35
23 22 21 20 21 22 22 22 22 22 24 24 25 26 27 30 31 32 32 33 33 34 37 37 35 36 38 38 38 40 40 41 39 39 36 39 35 36 36 37 37 36 37
22 22 21 21 21 22 23 22 22 21 23 24 27 28 29 28 31 33 34 35 37 37 39 40 41 43 41 38 38 40 40 41 41 39 40 37 35 35 35 35 35 36 37
Wind_Direction
336 327 318 314 305 294 284 274 257 247 255 246 252 257 256 255 254 253 254 260 248 247 251 260 252 250 251 245 228 231 230 235 233 233 230 224 224 218 220 222 223 225 228
315 312 317 318 311 306 296 287 265 256 257 255 257 263 265 267 263 256 251 253 257 250 247 255 251 248 249 234 223 230 231 239 234 235 234 231 226 226 222 223 227 200 239
303 300 301 308 306 311 310 296 281 266 260 264 268 268 266 274 276 269 261 253 244 248 249 250 246 240 241 229 222 230 228 237 235 234 234 234 233 232 227 227 227 221 240
294 292 285 290 298 306 303 298 294 287 281 273 270 268 267 274 270 263 265 268 245 250 256 252 242 250 237 227 231 234 230 221 243 238 233 234 235 234 234 233 234 236 236
300 273 270 277 284 297 299 297 293 287 286 285 279 277 274 274 269 266 268 262 257 241 240 254 246 242 243 228 225 236 247 229 235 233 234 233 236 238 238 236 238 240 240
317 272 277 281 282 296 295 296 296 299 302 304 298 294 289 280 277 269 264 263 257 250 247 242 244 239 233 225 229 237 239 221 242 234 231 232 233 239 242 242 239 239 241
321 352 191 287 305 301 300 309 304 301 294 297 301 303 303 298 289 286 257 262 253 249 226 239 247 244 239 243 235 236 235 221 240 243 231 228 230 237 241 243 244 245 244
295 281 267 279 285 283 296 300 307 300 303 308 301 301 300 322 291 276 254 263 254 247 238 239 244 246 239 245 239 230 225 218 229 234 236 229 229 233 237 237 240 240 242
289 289 282 278 283 286 281 280 284 304 299 293 298 310 301 323 326 277 252 261 257 251 246 246 236 238 239 237 246 242 230 224 224 227 234 233 234 232 234 236 237 239 239
281 280 280 289 288 284 286 282 287 288 303 302 298 297 298 316 329 281 269 271 265 253 253 252 239 237 237 237 241 243 242 240 228 228 234 233 235 236 237 237 240 240 235
265 275 282 278 271 284 288 289 291 294 298 301 300 298 310 301 320 297 255 266 265 243 239 235 240 243 241 242 233 242 243 248 241 233 235 235 237 237 237 239 240 243 242
235 263 272 277 271 285 283 298 298 298 300 301 297 307 317 301 295 294 267 274 270 243 233 232 239 241 242 242 233 236 236 239 241 239 240 239 241 243 246 244 243 244 242
243 280 255 266 270 282 286 296 294 292 296 295 296 300 300 292 286 281 284 274 276 240 233 233 208 220 243 239 236 236 232 235 240 240 239 240 242 245 247 248 248 248 242
255 268 256 250 271 289 293 297 296 300 296 297 299 297 295 289 293 297 281 276 264 242 241 240 229 198 211 198 209 217 229 227 234 243 246 242 238 255 251 243 246 242 242
284 287 280 275 278 283 289 294 299 299 299 294 293 292 294 289 294 278 284 265 255 254 247 250 240 229 212 234 221 230 238 240 251 235 254 246 249 257 255 245 242 241 241
280 288 294 296 299 302 300 300 299 299 296 296 298 293 289 288 290 287 278 270 250 242 246 250 249 237 237 251 248 253 256 259 258 244 255 260 262 265 264 255 250 243 243
290 303 304 305 304 304 305 305 304 304 302 298 298 291 276 274 296 291 287 265 250 245 248 250 249 255 238 254 262 263 269 267 271 264 264 268 268 270 271 268 256 249 246
313 313 315 313 312 312 311 310 309 306 304 298 289 277 278 269 286 289 292 278 273 258 247 249 249 257 262 261 261 265 275 276 271 278 272 276 275 268 265 269 265 252 252
327 323 318 314 309 305 302 302 301 300 300 298 289 280 277 276 277 280 283 278 281 275 276 262 256 254 258 258 262 263 270 267 272 269 274 278 268 269 268 265 267 261 251
328 321 318 315 310 305 301 301 301 300 299 298 295 291 284 277 274 274 273 271 265 266 271 267 270 273 271 266 263 264 270 274 276 272 276 277 275 267 266 265 260 263 255
327 320 315 310 307 303 303 303 301 299 297 295 294 293 290 287 283 278 275 272 270 268 266 266 267 268 274 276 270 258 263 270 272 279 279 276 275 268 263 268 262 258 259
324 316 309 304 300 297 297 297 298 298 296 297 297 297 296 293 290 287 283 277 273 273 271 272 273 273 272 267 266 264 266 266 269 275 277 275 272 267 267 267 263 257 255
322 313 307 302 298 297 297 298 297 297 297 297 297 296 295 295 293 292 289 287 285 280 275 274 272 271 271 271 268 267 268 270 272 271 272 272 270 269 266 264 261 258 256
321 313 309 307 304 302 302 301 299 299 299 298 298 297 296 294 294 291 290 289 287 288 286 283 280 277 275 274 273 273 269 269 270 271 270 269 269 268 266 263 259 259 257
318 314 310 309 307 306 305 302 301 302 300 299 298 297 298 298 298 297 295 295 293 291 289 286 281 281 281 279 276 275 276 274 272 272 269 270 266 266 263 262 261 256 255
320 314 312 310 310 309 308 305 305 304 305 305 305 304 299 297 297 297 296 295 294 291 291 289 289 289 285 280 277 276 273 272 274 271 274 271 269 266 264 262 259 258 253
Height
3194 3193 3193 3192 3191 3191 3190 3190 3189 3190 3191 3192 3193 3192 3193 3193 3193 3193 3193 3192 3193 3194 3195 3196 3197 3198 3199 3200 3202 3205 3207 3208 3209 3210 3213 3214 3213 3214 3215 3216 3218 3218 3219
3193 3192 3191 3190 3189 3189 3189 3188 3188 3188 3189 3188 3188 3188 3188 3187 3186 3187 3187 3189 3189 3190 3191 3191 3192 3194 3195 3196 3199 3201 3203 3206 3207 3208 3210 3212 3212 3213 3213 3215 3216 3217 3218
3191 3190 3189 3189 3188 3187 3187 3186 3185 3185 3185 3186 3185 3184 3184 3180 3182 3182 3181 3182 3183 3185 3187 3188 3189 3190 3191 3193 3195 3198 3200 3202 3204 3206 3207 3209 3210 3211 3212 3212 3214 3215 3216
3189 3187 3186 3186 3185 3184 3184 3184 3183 3183 3182 3182 3182 3180 3179 3179 3179 3178 3177 3177 3178 3182 3183 3184 3185 3186 3186 3188 3192 3192 3194 3197 3200 3202 3204 3206 3208 3209 3210 3210 3212 3213 3214
3185 3183 3183 3182 3182 3182 3182 3181 3181 3180 3179 3178 3177 3176 3176 3171 3174 3173 3173 3173 3173 3176 3178 3180 3180 3182 3182 3183 3186 3188 3191 3193 3195 3198 3200 3202 3205 3207 3208 3208 3210 3211 3212
3178 3181 3181 3178 3179 3179 3180 3179 3179 3178 3177 3176 3174 3173 3171 3170 3168 3169 3168 3167 3169 3170 3173 3174 3175 3176 3179 3179 3181 3184 3184 3187 3191 3193 3196 3198 3201 3203 3205 3206 3207 3208 3210
3179 3180 3179 3178 3176 3177 3176 3176 3175 3174 3174 3173 3171 3169 3167 3166 3165 3162 3163 3164 3165 3166 3167 3172 3170 3171 3174 3176 3178 3181 3182 3185 3187 3189 3191 3194 3197 3199 3201 3203 3205 3206 3208
3177 3177 3176 3174 3174 3175 3175 3175 3174 3173 3172 3170 3167 3165 3164 3163 3160 3159 3158 3160 3160 3161 3162 3163 3165 3167 3169 3172 3174 3177 3179 3181 3183 3185 3188 3190 3192 3194 3196 3199 3201 3203 3204
3175 3173 3172 3172 3172 3173 3172 3171 3170 3170 3169 3167 3164 3163 3159 3158 3155 3152 3155 3156 3156 3157 3158 3157 3160 3162 3165 3167 3169 3171 3174 3177 3178 3181 3184 3186 3188 3190 3192 3195 3196 3198 3200
3173 3171 3170 3170 3170 3170 3169 3168 3167 3166 3164 3163 3161 3158 3156 3154 3151 3150 3151 3152 3152 3153 3153 3153 3155 3157 3160 3163 3165 3165 3169 3171 3174 3177 3179 3182 3184 3186 3189 3190 3192 3194 3196
3168 3170 3168 3167 3166 3168 3166 3165 3163 3162 3161 3158 3157 3154 3150 3151 3150 3148 3146 3149 3147 3149 3150 3149 3150 3152 3154 3157 3159 3161 3164 3167 3170 3172 3175 3178 3180 3182 3184 3186 3187 3189 3192
3161 3165 3164 3164 3164 3164 3163 3162 3161 3159 3157 3155 3152 3152 3150 3149 3149 3148 3146 3147 3145 3144 3144 3144 3147 3148 3149 3151 3154 3156 3160 3164 3166 3168 3171 3173 3176 3178 3179 3181 3182 3184 3187
3160 3161 3162 3163 3163 3160 3159 3158 3158 3156 3154 3152 3149 3148 3148 3148 3147 3146 3144 3143 3143 3141 3141 3141 3144 3148 3147 3147 3149 3152 3155 3159 3162 3164 3167 3169 3171 3172 3173 3174 3177 3179 3180
3160 3161 3160 3160 3161 3158 3155 3154 3154 3152 3151 3149 3147 3146 3145 3144 3143 3142 3142 3141 3140 3141 3141 3142 3143 3143 3145 3146 3147 3148 3150 3153 3156 3159 3161 3162 3164 3166 3167 3168 3169 3172 3174
3161 3160 3158 3157 3155 3154 3153 3152 3150 3149 3148 3147 3145 3143 3141 3140 3139 3139 3138 3139 3139 3138 3136 3139 3140 3140 3141 3146 3147 3148 3150 3151 3152 3152 3155 3156 3158 3159 3160 3161 3163 3165 3166
3159 3158 3156 3155 3154 3152 3151 3149 3148 3146 3145 3143 3142 3140 3138 3137 3134 3135 3134 3134 3135 3135 3135 3136 3137 3137 3141 3143 3144 3145 3146 3147 3148 3149 3150 3151 3151 3152 3152 3153 3155 3157 3159
3159 3157 3156 3153 3152 3150 3148 3146 3144 3143 3142 3140 3139 3137 3135 3133 3131 3131 3130 3131 3131 3131 3132 3132 3133 3133 3134 3137 3138 3140 3141 3142 3142 3143 3144 3144 3145 3144 3144 3145 3146 3148 3151
3158 3156 3154 3152 3150 3147 3146 3143 3141 3139 3137 3136 3135 3134 3132 3130 3129 3128 3126 3126 3126 3127 3127 3126 3126 3127 3129 3131 3131 3131 3133 3136 3136 3134 3135 3137 3136 3137 3138 3138 3138 3139 3142
3156 3154 3152 3150 3148 3146 3143 3141 3138 3135 3132 3131 3130 3129 3127 3125 3124 3123 3121 3121 3120 3120 3119 3119 3120 3121 3122 3124 3123 3123 3123 3126 3126 3125 3126 3125 3126 3127 3128 3129 3130 3131 3133
3154 3152 3148 3145 3142 3140 3138 3136 3133 3131 3129 3127 3125 3123 3121 3119 3119 3117 3116 3115 3114 3113 3112 3112 3111 3111 3111 3111 3111 3114 3114 3113 3115 3116 3116 3116 3115 3117 3118 3120 3121 3122 3123
3150 3146 3143 3140 3137 3135 3133 3131 3129 3126 3123 3121 3118 3117 3116 3114 3112 3111 3110 3109 3107 3106 3104 3104 3103 3103 3103 3103 3102 3102 3101 3103 3104 3104 3104 3106 3106 3105 3108 3109 3110 3112 3113
3145 3142 3140 3137 3134 3131 3129 3127 3124 3121 3118 3116 3113 3110 3108 3107 3105 3104 3102 3101 3099 3098 3096 3095 3094 3092 3093 3093 3094 3094 3092 3092 3094 3095 3092 3093 3094 3095 3096 3097 3098 3100 3103
3140 3138 3134 3132 3129 3127 3124 3121 3119 3115 3113 3110 3107 3105 3102 3098 3097 3094 3093 3091 3090 3088 3087 3086 3084 3084 3082 3081 3081 3082 3080 3079 3081 3083 3081 3081 3084 3083 3085 3086 3086 3089 3092
3135 3132 3129 3126 3123 3121 3118 3116 3114 3111 3107 3104 3102 3099 3095 3092 3090 3087 3085 3083 3081 3078 3074 3074 3073 3073 3071 3070 3068 3068 3068 3068 3068 3070 3070 3069 3072 3071 3073 3074 3075 3077 3080
3129 3126 3123 3120 3117 3115 3112 3110 3108 3105 3101 3098 3096 3092 3089 3085 3082 3079 3076 3074 3072 3069 3064 3063 3062 3061 3059 3059 3057 3055 3055 3054 3056 3057 3059 3057 3061 3060 3061 3062 3064 3067 3068
3124 3121 3118 3114 3111 3108 3106 3103 3101 3098 3095 3092 3088 3085 3082 3080 3075 3071 3067 3064 3061 3059 3056 3053 3049 3047 3046 3046 3046 3043 3044 3043 3042 3044 3044 3047 3048 3049 3049 3051 3052 3054 3056